World > North America > United States > Wyoming > Frontier  

Frontier, WY Hourly Weather Updates

Feedback E-mail the Weather

Quick WX

Frontier, WY Weather Maps

°F °C°F °C
Frontier Weather Map
UTC Time: 2/29/2024, 19:38
Your Time:

Frontier, WY Regional Weather

Expires:202402292000;;163314
ASUS45 KCYS 291910
RWRWY 

WYOMING REGIONAL WEATHER ROUNDUP
NATIONAL WEATHER SERVICE CHEYENNE WY
1200 PM MST THU FEB 29 2024

NOTE:  "FAIR" INDICATES FEW OR NO CLOUDS BELOW 12,000 FEET
WITH NO SIGNIFICANT WEATHER AND/OR OBSTRUCTIONS TO VISIBILITY.


WYZ021-027>030-104>119-292000-
...SOUTHERN WYOMING...
  
CITY           SKY/WX    TMP DP  RH WIND       PRES   REMARKS
EVANSTON       SUNNY     38  18  44 SW14      29.94F WCI  30          
KEMMERER       MOSUNNY   32  14  47 CALM      29.97S                  
FORT BRIDGER   SUNNY     35  20  56 CALM      29.99F                  
ROCK SPRINGS   SUNNY     37  20  50 CALM      29.96F                  
DIXON          SUNNY     41  15  35 S12       30.05F                  
RAWLINS        SUNNY     44  13  28 SW22G35   29.95F                  
SARATOGA       SUNNY     45  16  31 SW14      29.98F                  
LARAMIE        SUNNY     47  11  23 SW16G28   29.94F                  
CHEYENNE       SUNNY     53  11  18 W23G35    29.92F                  
TORRINGTON     SUNNY     59  17  19 W20G32    29.84F                  
PINE BLUFFS      N/A     57   9  14 SW8       29.91F                  

$$
  

SKY/WX - Weather  TMP - Temperature  DP - Dew Point  RH - Humidity
WIND - Wind Direction/Speed PRES - Barometric Pressure VSB - Visibility
WCI - Wind Chill Index E13G22 Wind - East Wind 13 mph/Gusts of 22 mph

Trending Headlines

Trending Entertainment Headlines

Frontier Radar Loop

Use the map search tool if you want to place a location marker on the radar map...

Frontier Quick Facts

National Two Day Weather Forecast


E-mail the Frontier Weather Forecast

Voice your opinion or tell us about page issues...